Regional Weather Roundup
Issued by NWS Boston, MA

Home | Current Version | Previous Version | Text Only | Print | Product List | Glossary On
Versions: 1 2 3 4 5 6 7 8 9 10 11 12 13 14 15 16 17 18 19 20 21 22 23 24 25 26 27
000
ASUS41 KBOX 281010
RWRBOX

REGIONAL WEATHER ROUNDUP
NATIONAL WEATHER SERVICE TAUNTON MA
600 AM EDT SUN MAY 28 2017

NOTE:  "FAIR" INDICATES FEW OR NO CLOUDS BELOW 12,000 FEET WITH NO
SIGNIFICANT WEATHER AND/OR OBSTRUCTIONS TO VISIBILITY.

MAZALL-281100-
EASTERN MASSACHUSETTS

CITY           SKY/WX    TMP DP  RH WIND       PRES   REMARKS
BOSTON         PTCLDY    55  52  89 CALM      29.92S
BEVERLY        PTCLDY    52  51  97 CALM      29.92R
LAWRENCE       CLEAR     51  49  92 NE5       29.95R
BEDFORD        MOCLDY    52  49  89 CALM      29.91S
BLUE HILL        N/A     53  51  93 S9        29.90F
NORWOOD        CLOUDY    56  54  93 S3        29.91F
MARSHFIELD     CLEAR     54  52  94 CALM      29.92S
PLYMOUTH       CLOUDY    54  49  83 S6        29.93S
TAUNTON        CLOUDY    54  51  90 SE3       29.92S
NEW BEDFORD    CLOUDY    53  52  96 S5        29.92F
$$

MAZALL-281100-
CAPE COD AND THE ISLANDS

CITY           SKY/WX    TMP DP  RH WIND       PRES   REMARKS
FALMOUTH         N/A    N/A N/A N/A MISG        N/A
HYANNIS        MOCLDY    53  50  89 SE3       29.92S
CHATHAM        PTCLDY    50  48  93 CALM      29.95R
PROVINCETOWN   CLEAR     52  49  89 SE3       29.95R
NANTUCKET      PTCLDY    50  48  93 S3        29.93F
MARTHAS VNYRD  CLOUDY    51  50  96 CALM      29.92S
$$

MAZALL-281100-
CENTRAL AND WESTERN MASSACHUSETTS

CITY           SKY/WX    TMP DP  RH WIND       PRES   REMARKS
WORCESTER      CLOUDY    55  52  89 SW8       29.92R
FITCHBURG      CLOUDY    57  52  83 CALM      29.93R
ORANGE         CLOUDY    57  56  96 CALM      29.91R
SPRINGFIELD    CLOUDY    57  53  88 CALM      29.91R
WESTFIELD      NOT AVBL
NORTH ADAMS    CLOUDY    56  54  93 CALM      29.92R
$$

RIZALL-281100-
RHODE ISLAND

CITY           SKY/WX    TMP DP  RH WIND       PRES   REMARKS
PROVIDENCE     CLOUDY    56  55  97 SW6       29.93F
NEWPORT        CLOUDY    55  53  93 S8        29.93F
BLOCK ISLAND   CLOUDY    55  52  89 S3        29.96R
SMITHFIELD     CLOUDY    53  52  96 VRB3      29.93R
WESTERLY       CLOUDY    57  53  86 S5        29.95R
$$

CTZALL-281100-
CONNECTICUT

CITY           SKY/WX    TMP DP  RH WIND       PRES   REMARKS
BRADLEY INTL   CLOUDY    57  54  89 S5        29.92R
HARTFORD       CLOUDY    58  54  86 SE3       29.92R
BRIDGEPORT     CLOUDY    60  55  83 CALM      29.92R
DANBURY        CLOUDY    56  55  97 CALM      29.94R
GROTON         CLOUDY    56  53  90 CALM      29.94R
NEW HAVEN      CLOUDY    57  54  89 SE3       29.93R
CHESTER        CLOUDY    55  54  94 CALM      29.93R
MERIDEN        CLOUDY    56  54  93 CALM      29.93R
WILLIMANTIC    CLOUDY    57  54  89 SW3       29.94R
OXFORD         CLOUDY    55  50  82 CALM      29.94S
$$

MEZ002-015-021-024-NHZ003-005-008-011-012-014-VTZ005-008-281100-
NORTHERN NEW ENGLAND

CITY           SKY/WX    TMP DP  RH WIND       PRES   REMARKS
PORTLAND ME    PTCLDY    47  45  93 CALM      29.96R
BANGOR ME      FOG       42  42 100 SE5       29.95S VSB 1/4
CONCORD NH     CLEAR     45  43  93 CALM      29.94R
MANCHESTER NH  PTCLDY    50  45  83 N3        29.92S
NASHUA NH      MOCLDY    50  49  96 CALM      29.94R
PORTSMOUTH NH  CLOUDY    50  48  94 CALM      29.93R
JAFFREY NH     CLOUDY    56  56 100 CALM      29.92R
KEENE NH       CLOUDY    55  54  96 CALM      29.92R
BURLINGTON VT  PTCLDY    51  49  92 E3        29.90S
MT. WASHINGTON PTCLDY    39  32  75 NW5         N/A
$$

NYZ052-076-281100-
EASTERN NEW YORK

CITY           SKY/WX    TMP DP  RH WIND       PRES   REMARKS
ALBANY         CLOUDY    60  55  83 CALM      29.91R
NEW YORK CITY  CLOUDY    59  56  89 E3        29.90S
$$

ANZALL-281100-
MARINE OBSERVATIONS

STATION/POSITION TIME  TEMP    WIND        PRES    VSBY  WAVE
                       AIR SEA DIR/SP/G                  HT/PER
                 (UTC) (F)     (DEG/KT/KT) (MB)    (MI)  (FT/S)
BOSTON BUOY      0950   54 53  150/  6/  6 1012.6R         2/ 9
BUZZARDS BAY     0900   54     180/  6/  7 1014.2R
NANTUCKET SOUND  0950      52              1013.6R         1
MASS BAY-STELLWA 0904   52 51  150/  8/  8 1012.7R         2/ 3
ISLE OF SHOALS   0900   50     120/ 10/ 11 1013.1S
S OF BLOCK IS    0955      53                N/A           3/ 8
$$

......................KEY.........................
  SKY/WX - SKY CONDITION/PRESENT WEATHER
  TMP    - TEMPERATURE IN FAHRENHEIT
  DWPT   - DEWPOINT IN FAHRENHEIT
  RH     - RELATIVE HUMIDITY IN PERCENT
  WIND   - DIRECTION AND SPEED IN MPH
  PRES   - MEAN SEA LEVEL PRESSURE IN INCHES OF HG
  WCI    - WIND CHILL INDEX
  VSB    - VISIBILITY IN MILES
  HX     - HEAT INDEX
  TC     - TEMPERATURE IN CELSIUS
  VRB    - VARIABLE WIND DIRECTION
  N/A    - NOT AVAILABLE




USA.gov is the U.S. government's official web portal to all federal, state and local government web resources and services.